AG7BI Weather Reports


time (UTC)temp
C
wind
direction
speed
KPH
gust
KPH
rain 1hr
cm
rain 24hr
cm
rain mn
cm
humidity
%
barometer
mb
20260505065552 11 147 1.6 3.2 0.00 0.00 0.00 89 1012.3
20260505065052 11 155 1.6 1.6 0.00 0.00 0.00 89 1012.1
20260505064552 11 141 1.6 3.2 0.00 0.00 0.00 89 1012.2
20260505064052 11 141 3.2 3.2 0.00 0.00 0.00 89 1012.0
20260505063552 11 149 1.6 3.2 0.00 0.00 0.00 88 1012.1
20260505063052 11 137 1.6 1.6 0.00 0.00 0.00 86 1012.0
20260505062552 11 144 1.6 3.2 0.00 0.00 0.00 85 1012.0
20260505062052 11 131 1.6 3.2 0.00 0.00 0.00 85 1012.0
20260505061552 11 160 1.6 3.2 0.00 0.00 0.00 84 1011.8
20260505061052 11 145 3.2 3.2 0.00 0.00 0.00 82 1011.8
20260505060552 11 125 3.2 3.2 0.00 0.00 0.00 84 1011.8
20260505060052 11 149 3.2 3.2 0.00 0.00 0.00 85 1011.4
20260505055552 11 114 1.6 3.2 0.00 0.00 0.00 83 1011.4
20260505055052 11 123 3.2 4.8 0.00 0.00 0.00 84 1011.4
20260505054552 11 146 3.2 3.2 0.00 0.00 0.00 83 1011.4
20260505054052 11 129 4.8 4.8 0.00 0.00 0.00 83 1011.6
20260505053552 11 150 1.6 3.2 0.00 0.00 0.00 82 1011.6
20260505053052 11 118 3.2 3.2 0.00 0.00 0.00 82 1011.4
20260505052552 11 0 0.0 3.2 0.00 0.00 0.00 81 1011.5
20260505052052 11 126 1.6 4.8 0.00 0.00 0.00 81 1011.3
20260505051552 11 156 1.6 1.6 0.00 0.00 0.00 81 1011.3
20260505051052 11 172 1.6 3.2 0.00 0.00 0.00 80 1011.0
20260505050552 11 172 1.6 1.6 0.00 0.00 0.00 80 1011.0
20260505041552 13 150 1.6 3.2 0.00 0.00 0.00 76 1010.8
20260505041052 14 213 1.6 1.6 0.00 0.00 0.00 75 1010.5
20260505040552 14 175 1.6 1.6 0.00 0.00 0.00 75 1010.5
20260505040052 14 124 1.6 3.2 0.00 0.00 0.00 74 1010.5
20260505035552 14 144 1.6 1.6 0.00 0.00 0.00 73 1010.2
20260505035052 15 132 1.6 3.2 0.00 0.00 0.00 73 1010.2
20260505034552 15 166 1.6 1.6 0.00 0.00 0.00 71 1010.1
20260505034052 15 0 0.0 1.6 0.00 0.00 0.00 71 1010.0
20260505033552 15 169 1.6 1.6 0.00 0.00 0.00 70 1010.3
20260505033052 15 212 1.6 1.6 0.00 0.00 0.00 69 1010.0
20260505032552 16 0 0.0 1.6 0.00 0.00 0.00 68 1010.3
20260505032052 16 0 0.0 1.6 0.00 0.00 0.00 67 1010.1
20260505031552 16 0 0.0 1.6 0.00 0.00 0.00 66 1009.9
20260505031052 16 158 1.6 3.2 0.00 0.00 0.00 66 1009.9
20260505030552 17 0 0.0 3.2 0.00 0.00 0.00 65 1009.7
20260505030052 17 135 1.6 1.6 0.00 0.00 0.00 65 1009.7
20260505025552 17 176 3.2 3.2 0.00 0.00 0.00 62 1009.6
20260505025052 17 151 1.6 3.2 0.00 0.00 0.00 61 1009.7
20260505024552 18 0 0.0 3.2 0.00 0.00 0.00 60 1009.7
20260505024052 18 0 0.0 1.6 0.00 0.00 0.00 59 1009.7
20260505023552 18 171 3.2 3.2 0.00 0.00 0.00 58 1009.7
20260505023052 18 178 1.6 1.6 0.00 0.00 0.00 56 1009.5
20260505022552 18 168 1.6 1.6 0.00 0.00 0.00 55 1009.4
20260505022052 18 146 1.6 1.6 0.00 0.00 0.00 54 1009.6
20260505021552 18 182 1.6 1.6 0.00 0.00 0.00 52 1009.6
20260505021052 19 171 1.6 1.6 0.00 0.00 0.00 51 1009.5
20260505020552 19 196 1.6 1.6 0.00 0.00 0.00 50 1009.6
20260505020052 19 173 1.6 3.2 0.00 0.00 0.00 49 1009.5
20260505015552 19 168 1.6 1.6 0.00 0.00 0.00 50 1009.6
20260505015052 20 0 0.0 3.2 0.00 0.00 0.00 48 1009.6
20260505014552 20 0 0.0 1.6 0.00 0.00 0.00 49 1009.6
20260505014052 20 141 1.6 1.6 0.00 0.00 0.00 48 1009.8
20260505013552 20 134 1.6 1.6 0.00 0.00 0.00 50 1009.7
20260505013052 20 171 1.6 3.2 0.00 0.00 0.00 48 1009.8
20260505012552 20 208 1.6 1.6 0.00 0.00 0.00 49 1009.7
20260505012052 20 0 0.0 1.6 0.00 0.00 0.00 48 1009.7
20260505011552 20 154 1.6 3.2 0.00 0.00 0.00 50 1009.9
20260505011052 20 0 0.0 1.6 0.00 0.00 0.00 49 1009.8
20260505010552 20 203 3.2 3.2 0.00 0.00 0.00 47 1009.8
20260505010052 21 0 0.0 1.6 0.00 0.00 0.00 49 1009.8
20260505005552 21 0 0.0 1.6 0.00 0.00 0.00 47 1009.8
20260505005052 21 0 0.0 0.0 0.00 0.00 0.00 48 1009.8
20260505004552 21 0 0.0 1.6 0.00 0.00 0.00 48 1009.8
20260505004052 21 0 0.0 1.6 0.00 0.00 0.00 48 1009.7
20260505003552 21 0 0.0 3.2 0.00 0.00 0.00 49 1009.8
20260505003052 21 0 0.0 1.6 0.00 0.00 0.00 51 1009.8
20260505002552 21 0 0.0 1.6 0.00 0.00 0.00 53 1009.6
20260505002052 21 0 0.0 1.6 0.00 0.00 0.00 52 1009.6
20260505001552 21 156 1.6 3.2 0.00 0.00 0.00 53 1009.9
20260505001052 21 161 1.6 3.2 0.00 0.00 0.00 53 1009.6
20260505000552 21 238 1.6 1.6 0.00 0.00 0.00 56 1009.7
20260505000052 21 157 1.6 3.2 0.00 0.00 0.00 54 1009.6
20260504235552 21 0 0.0 1.6 0.00 0.00 0.00 56 1009.7
20260504235052 21 0 0.0 1.6 0.00 0.00 0.00 55 1009.6
20260504234552 22 0 0.0 1.6 0.00 0.00 0.00 54 1009.7
20260504234052 22 0 0.0 1.6 0.00 0.00 0.00 56 1009.6
20260504233552 22 149 3.2 3.2 0.00 0.00 0.00 56 1009.7
20260504233052 22 236 1.6 1.6 0.00 0.00 0.00 54 1009.7
20260504232552 22 277 3.2 3.2 0.00 0.00 0.00 51 1009.8
20260504232052 22 214 1.6 3.2 0.00 0.00 0.00 52 1009.6
20260504231552 22 187 1.6 3.2 0.00 0.00 0.00 52 1009.7
20260504231052 22 171 1.6 3.2 0.00 0.00 0.00 52 1009.6
20260504230552 22 249 3.2 3.2 0.00 0.00 0.00 52 1009.6
20260504230052 22 0 0.0 1.6 0.00 0.00 0.00 53 1009.7
20260504225552 22 0 0.0 1.6 0.00 0.00 0.00 48 1009.6
20260504225052 22 242 1.6 3.2 0.00 0.00 0.00 49 1009.6
20260504224552 22 240 1.6 3.2 0.00 0.00 0.00 49 1009.8
20260504224052 23 250 3.2 3.2 0.00 0.00 0.00 49 1009.9
20260504223552 23 184 1.6 1.6 0.00 0.00 0.00 50 1009.9
20260504223052 23 0 0.0 1.6 0.00 0.00 0.00 42 1009.8
20260504222552 23 30 1.6 1.6 0.00 0.00 0.00 43 1009.9
20260504222052 22 0 0.0 3.2 0.00 0.00 0.00 44 1010.0
20260504221552 22 0 0.0 1.6 0.00 0.00 0.00 45 1009.9
20260504221052 22 0 0.0 1.6 0.00 0.00 0.00 51 1010.1
20260504220552 22 199 1.6 1.6 0.00 0.00 0.00 47 1010.2
20260504220052 22 242 1.6 1.6 0.00 0.00 0.00 49 1010.3
20260504215552 22 0 0.0 3.2 0.00 0.00 0.00 50 1010.4
20260504215052 22 207 1.6 1.6 0.00 0.00 0.00 52 1010.6
20260504214552 21 190 1.6 3.2 0.00 0.00 0.00 51 1010.5
20260504214052 21 174 1.6 3.2 0.00 0.00 0.00 52 1010.3
20260504213552 21 0 0.0 3.2 0.00 0.00 0.00 56 1010.4
20260504213052 21 257 3.2 3.2 0.00 0.00 0.00 53 1010.4
20260504212552 21 0 0.0 1.6 0.00 0.00 0.00 57 1010.5
20260504212052 21 142 1.6 3.2 0.00 0.00 0.00 56 1010.7
20260504211552 21 0 0.0 0.0 0.00 0.00 0.00 53 1010.6
20260504211052 21 220 1.6 1.6 0.00 0.00 0.00 53 1010.8
20260504210552 21 140 1.6 3.2 0.00 0.00 0.00 55 1010.6
20260504210052 20 0 0.0 1.6 0.00 0.00 0.00 55 1010.8
20260504205552 20 131 1.6 1.6 0.00 0.00 0.00 55 1010.8
20260504205052 20 146 1.6 3.2 0.00 0.00 0.00 50 1010.9
20260504204552 20 0 0.0 1.6 0.00 0.00 0.00 50 1010.7
20260504204052 20 0 0.0 1.6 0.00 0.00 0.00 53 1010.8
20260504203552 20 0 0.0 1.6 0.00 0.00 0.00 50 1010.8
20260504203052 20 0 0.0 3.2 0.00 0.00 0.00 51 1010.8
20260504202552 20 145 1.6 3.2 0.00 0.00 0.00 52 1010.6
20260504202052 21 127 1.6 3.2 0.00 0.00 0.00 46 1010.7
20260504201552 21 164 3.2 4.8 0.00 0.00 0.00 45 1010.8
20260504201052 21 187 1.6 3.2 0.00 0.00 0.00 51 1010.9
20260504200552 22 164 1.6 3.2 0.00 0.00 0.00 50 1011.0
20260504200052 22 186 1.6 1.6 0.00 0.00 0.00 48 1011.1
20260504195552 22 228 1.6 1.6 0.00 0.00 0.00 47 1011.0
20260504195052 22 0 0.0 1.6 0.00 0.00 0.00 51 1010.9
20260504194552 23 122 3.2 3.2 0.00 0.00 0.00 45 1010.8
20260504194052 22 269 1.6 1.6 0.00 0.00 0.00 42 1010.7
20260504193552 22 0 0.0 1.6 0.00 0.00 0.00 48 1010.7
20260504193052 23 115 3.2 3.2 0.00 0.00 0.00 44 1010.7
20260504192552 22 0 0.0 1.6 0.00 0.00 0.00 50 1010.9
20260504192052 22 0 0.0 1.6 0.00 0.00 0.00 52 1010.9
20260504191552 22 0 0.0 1.6 0.00 0.00 0.00 47 1011.0
20260504191052 21 0 0.0 1.6 0.00 0.00 0.00 56 1011.1
20260504190552 21 137 3.2 4.8 0.00 0.00 0.00 52 1011.1
20260504190052 20 113 1.6 1.6 0.00 0.00 0.00 54 1011.1
20260504185552 20 142 1.6 1.6 0.00 0.00 0.00 53 1011.2
20260504185052 20 179 1.6 1.6 0.00 0.00 0.00 55 1011.1
20260504184552 20 114 1.6 1.6 0.00 0.00 0.00 54 1011.4
20260504184052 20 131 1.6 3.2 0.00 0.00 0.00 55 1011.4
20260504183552 20 88 1.6 1.6 0.00 0.00 0.00 55 1011.4
20260504183052 20 149 1.6 3.2 0.00 0.00 0.00 54 1011.4
20260504182552 20 150 1.6 1.6 0.00 0.00 0.00 55 1011.4
20260504182052 20 0 0.0 1.6 0.00 0.00 0.00 55 1011.1
20260504181552 20 155 1.6 3.2 0.00 0.00 0.00 54 1011.1
20260504181052 20 156 1.6 3.2 0.00 0.00 0.00 54 1011.0
20260504180552 20 0 0.0 1.6 0.00 0.00 0.00 55 1011.2
20260504180052 20 179 1.6 1.6 0.00 0.00 0.00 59 1011.1
20260504175552 20 130 1.6 1.6 0.00 0.00 0.00 58 1011.1
20260504175052 19 153 1.6 1.6 0.00 0.00 0.00 57 1011.0
20260504174552 19 142 1.6 3.2 0.00 0.00 0.00 60 1011.2
20260504174052 19 198 1.6 1.6 0.00 0.00 0.00 56 1011.1
20260504173552 18 140 1.6 1.6 0.00 0.00 0.00 61 1011.2
20260504173052 18 0 0.0 1.6 0.00 0.00 0.00 60 1011.2
20260504172552 18 177 1.6 3.2 0.00 0.00 0.00 57 1011.3
20260504172052 18 0 0.0 1.6 0.00 0.00 0.00 58 1011.2
20260504171552 18 151 1.6 1.6 0.00 0.00 0.00 61 1011.3
20260504171052 17 130 1.6 1.6 0.00 0.00 0.00 59 1011.1
20260504170552 17 138 3.2 4.8 0.00 0.00 0.00 59 1011.2
20260504151052 13 145 3.2 3.2 0.00 0.00 0.00 75 1011.0
20260504150552 13 140 3.2 3.2 0.00 0.00 0.00 72 1010.8
20260504141052 11 166 1.6 1.6 0.00 0.00 0.00 78 1010.4
20260504140552 10 149 1.6 3.2 0.00 0.00 0.00 78 1010.6
20260504130552 9 152 3.2 3.2 0.00 0.00 0.00 79 1010.1
20260504110552 10 157 1.6 1.6 0.00 0.00 0.00 74 1010.1
20260504100552 10 0 0.0 1.6 0.00 0.00 0.00 73 1010.3
20260504081552 12 0 0.0 1.6 0.00 0.00 0.00 59 1009.7
20260504081052 12 122 1.6 1.6 0.00 0.00 0.00 59 1009.8
20260504080552 13 162 3.2 3.2 0.00 0.00 0.00 59 1009.8